SL-8 DEB, 21166

Orbit data source: Space-Track

SL-8 DEB, 21166 is space debris in LEO originally from a launch on Tue, 12 Feb 1991 UTC launched from the Plesetsk Missile And Space Complex (PKMTR). Debris objects in space refer to the collection of defunct objects orbiting the Earth. Examples of debris include non-operational satellites, rocket bodies, and fragments generated from explosions, collisions, or faulty payload assembly.

Loading next visibility...
Identifier
21166, 1991-009AD
Orbit
LEO
Country
Flag of CISCIS
Related business
Manufacturer
Unknown
Mission
Spacecraft
Bus & Motor
Unknown
Mass
Unknown
Launch date (UTC)
1991-02-12 (35 years ago)
Launch vehicle
Unknown
Launch site
Plesetsk Missile And Space Complex (PKMTR)
Object type
Payload
Rocket body
Debris
Shape & HBR
Unknown shape, 0.4 m
Radar Cross Section
Medium (>0.1 m² and <1 m²)

Expand to show TLE details & history
Last TLE update: 2 days ago

TLE from 2 days ago
0 SL-8 DEB
1 21166U 91009AD  26171.45851214  .00000030  00000-0  42787-3 0  9996
2 21166  74.0617 232.9617 0122563 286.5413  83.2900 12.19243158570731
Epoch: 2026-06-20T11:00Z
TLE epoch observation values (Epoch: 2026-06-20T11:00:15.448Z)
Latitude
10.75167°
Longitude
162.31796°
Altitude
1,587.202 km
Speed
7.081 km/s
True Right ascension
15h 44m 13s
True Declination
10° 41' 43"
Sunlit
Object was in full shadow at epoch
Visualization orbit readout
Latitude
Unknown
Longitude
Unknown
Altitude
Unknown
Speed
Unknown
Apparent Right ascension
Unknown
Apparent Declination
Unknown
Sunlit
N/A
Visualization observer readout
Local Sidereal Time
02:30:11
Azimuth
Unknown
Elevation
Unknown
Doppler factor
Unknown
Orbital elements
Apogee altitude
1,691.413 km
Perigee altitude
1,496.002 km
Semi-major axis
7,971.845 km
Eccentricity
0.01226
Inclination
74.0617°
RAAN
232.9617°
Arg. of periapsis
286.5413°
True anomaly
84.68721°
Mean anomaly
83.29°
Eccentric anomaly
83.98837°
Mean motion
3.04933 °/min
Orbital period
118.06 mins
BSTAR
0.00042787
Loading maneuver chart data...
Computing Atmospheric mass density...
Loading historical data...
Loading historical data...
Loading historical data...
Loading historical data...
Loading historical data...
Loading historical data...
Loading historical data...

Documentation

Showing up to 5 results
|